Location: Newark
(46.7000°N, 60.6000°W)
Time: 08:36:46
(UTC+00:00)

Vanguard 3 - Pass Details

Date: 06 November 2020
Orbit: 508 x 3262 km, 33.3° (Epoch: 29 November)

Event Time Altitude Azimuth Distance (km) Brightness Sun altitude
Rises 08:41:53 0° 248° (WSW) 5,442 - -22.6°
Reaches altitude 10° 08:45:05 10° 243° (WSW) 4,759 - -22.1°
Exits shadow 08:47:40 19° 237° (WSW) 4,279 10.3 -21.6°
Maximum altitude 08:59:05 51° 173° (S) 3,462 10.3 -19.7°
Drops below altitude 10° 09:17:44 10° 106° (ESE) 6,185 12.9 -16.5°
Sets 09:22:37 0° 102° (ESE) 7,119 13.8 -15.7°
